Tekamah, NE

6:55 AM CDT on April 30, 2017 (GMT -0500)
Tekamah

Weather History for KTQE - September, 2012

Change the Weather History Date:

Tuesday, September 18, 2012

  Actual Average Record
Temperature  
Mean Temperature 54 °F -  
Max Temperature 73 °F 77 °F 95 °F (1948)
Min Temperature 35 °F 53 °F 35 °F (2012)
Degree Days  
Heating Degree Days 12    
Growing Degree Days 4 (Base 50)    
Moisture  
Dew Point 36 °F    
Average Humidity 57    
Maximum Humidity 92    
Minimum Humidity 24    
Precipitation  
Precipitation 0.00 in - - ()
Sea Level Pressure  
Sea Level Pressure 30.03 in    
Wind  
Wind Speed 4 mph (South)    
Max Wind Speed 12 mph    
Max Gust Speed -    
Visibility 10 miles    
Events      
Averages and records for this station are not official NWS values.
T = Trace of Precipitation, MM = Missing Value Source: NWS Daily Summary

Daily Weather History Graph

Daily Weather History Graph

Search for Another Location

Airport or City:

Trip Planner

Search our weather history database for the weather conditions in past years. The results will help you decide how hot, cold, wet, or windy it might be!

Date:

Astronomy

Sep. 18, 2012 Rise Set
Actual Time 7:08 AM CDT 7:28 PM CDT
Civil Twilight 6:40 AM CDT 7:55 PM CDT
Nautical Twilight 6:07 AM CDT 8:28 PM CDT
Astronomical Twilight 5:34 AM CDT 9:01 PM CDT
Moon 10:13 AM CDT (9/18) 8:47 PM CDT (9/18)
Length of Visible Light 13h 15m
Length of Day
12h 19m
Waxing Crescent, 9% of the Moon is Illuminated
Sep 18
Waxing Crescent
Sep 22
First Quarter
Sep 29
Full
Oct 8
Last Quarter
Oct 15
New

Hourly Weather History & Observations

Time (CDT) Temp. Windchill Dew Point Humidity Pressure Visibility Wind Dir Wind Speed Gust Speed Precip Events Conditions
12:54 AM 46.0 °F 42.5 °F 39.0 °F 76% 30.08 in 10.0 mi NNW 6.9 mph - N/A   Clear
1:54 AM 44.1 °F 40.8 °F 37.9 °F 79% 30.08 in 10.0 mi WNW 5.8 mph - N/A   Clear
3:54 AM 37.0 °F - 34.0 °F 89% 30.09 in 10.0 mi Calm Calm - N/A   Clear
4:54 AM 37.0 °F - 34.0 °F 89% 30.08 in 10.0 mi Calm Calm - N/A   Clear
5:54 AM 36.0 °F - 33.1 °F 89% 30.09 in 9.0 mi Calm Calm - N/A   Clear
6:54 AM 35.1 °F 32.2 °F 33.1 °F 92% 30.09 in 10.0 mi NW 3.5 mph - N/A   Clear
7:54 AM 39.0 °F - 36.0 °F 89% 30.12 in 7.0 mi Calm Calm - N/A   Clear
8:54 AM 46.9 °F - 39.9 °F 77% 30.12 in 8.0 mi Calm Calm - N/A   Clear
9:54 AM 53.1 °F - 41.0 °F 64% 30.12 in 10.0 mi Variable 3.5 mph - N/A   Clear
10:54 AM 55.9 °F - 37.9 °F 51% 30.11 in 10.0 mi Calm Calm - N/A   Clear
11:54 AM 61.0 °F - 36.0 °F 39% 30.10 in 10.0 mi Calm Calm - N/A   Clear
12:54 PM 64.9 °F - 35.1 °F 33% 30.06 in 10.0 mi South 6.9 mph - N/A   Clear
1:54 PM 66.9 °F - 30.0 °F 25% 30.03 in 9.0 mi Calm Calm - N/A   Clear
2:54 PM 70.0 °F - 32.0 °F 25% 30.01 in 10.0 mi SSW 9.2 mph - N/A   Clear
3:54 PM 71.1 °F - 32.0 °F 24% 29.99 in 10.0 mi Calm Calm - N/A   Clear
4:54 PM 71.1 °F - 33.1 °F 25% 29.97 in 10.0 mi SW 6.9 mph - N/A   Clear
5:54 PM 72.0 °F - 34.0 °F 25% 29.95 in 10.0 mi South 9.2 mph - N/A   Clear
6:54 PM 68.0 °F - 36.0 °F 31% 29.94 in 10.0 mi SSE 9.2 mph - N/A   Clear
7:54 PM 60.1 °F - 39.0 °F 46% 29.94 in 10.0 mi SE 9.2 mph - N/A   Clear
8:54 PM 60.1 °F - 37.9 °F 44% 29.93 in 10.0 mi SE 11.5 mph - N/A   Clear
9:54 PM 55.9 °F - 39.0 °F 53% 29.93 in 10.0 mi South 5.8 mph - N/A   Clear
10:54 PM 50.0 °F - 39.9 °F 68% 29.92 in 10.0 mi SSE 3.5 mph - N/A   Clear
11:54 PM 46.9 °F - 39.0 °F 74% 29.91 in 10.0 mi South 5.8 mph - N/A   Clear